Preview of NWS' New Version of Forecast
This preview is not operational and should not be used for support decisions.
Latest weather observations around

Bloomington/Normal, Central Illinois Regional Airport at Bloomington-Normal (KBMI)

Using English Units (Switch to International System of Units)
Date/ Time (CDT) Wind (mph) Vis. (mi) Weather Sky Cond. Temp (°F) Rel. Humidity Wind Chill (°F) Heat Index (°F) Pressure Precip. (in)
Air Dwpt 6 hour Altimeter (inHg) Sea level (inHg) 1 hr 3 hr 6 hr
Max Min
Sep 21 20:56 S 7 10 Partly Cloudy SCT041 72 68     87%   73 30.07 30.05 0    
Sep 21 19:56 S 7 10 Light Rain BKN043 OVC090 73 67     81%   74 30.07 30.05 0    
Sep 21 18:56 S 13 10 Light Rain BKN042 OVC070 75 67     76%   76 30.07 30.05 0   0
Sep 21 17:56 S 16 10 Clear CLR 77 68     74%   78 30.06 30.04      
Sep 21 16:56 S 11 10 Cloudy BKN070 OVC120 78 70     76%   79 30.06 30.03      
Sep 21 15:56 S 15 10 Mostly Cloudy FEW070 BKN100 77 70     79%   78 30.06 30.03      
Sep 21 14:56   10 Cloudy OVC070 79 70     74%   82 30.07 30.05      
Sep 21 13:56 S 16 10 Cloudy SCT050 OVC070 78 72     82%   79 30.09 30.07      
Sep 21 12:56 SSE 17 10 Cloudy OVC045 72 70     93%   73 30.12 30.1 0   0
Sep 21 11:56   10 Light Rain OVC050 71 69     93%   72 30.13 30.11 0    
Sep 21 10:56 S 14 10 Light Rain FEW038 OVC060 71 70     96%   72 30.15 30.13 0    
Sep 21 09:56 SSW 15 10 Light Rain OVC070 72 70     93%   73 30.16 30.14 0 0  
Sep 21 08:56 SSW 18 10 Light Rain FEW030 OVC100 73 70     90%   74 30.15 30.13 0    
Sep 21 07:56 S 10 10 Cloudy FEW046 OVC065 71 69     93%   72 30.15 30.13 0    
Sep 21 06:56 S 9 10 Light Rain FEW100 SCT120 70 69     97%     30.14 30.12 0   0
Sep 21 05:56 S 11 10 Clear CLR 71 68     90%   72 30.14 30.1      
Sep 21 04:56 SSW 9 10 Mostly Clear FEW110 70 67     90%     30.14 30.1      
Sep 21 03:56 SSW 10 10 Clear CLR 70 67     90%     30.13 30.09      
Sep 21 02:56 S 9 10 Clear CLR 70 68     93%     30.13 30.09      
Sep 21 01:56 S 8 10 Clear CLR 69 68     96%     30.13 30.1      
Sep 21 00:56 S 9 10 Clear CLR 70 68     93%     30.13 30.1      
Sep 20 23:56 SSW 11 10 Clear CLR 72 69     91%   73 30.13 30.11      
Sep 20 22:56 SSW 9 10 Clear CLR 73 70     90%   74 30.14 30.11      
Sep 20 21:56 S 8 10 Clear CLR 74 70     87%   75 30.14 30.11      
Sep 20 20:56 S 8 10 Clear CLR 73 69     87%   74 30.14 30.11      
Sep 20 19:56 SSE 8 10 Clear CLR 76 68     76%   77 30.12 30.1      
Sep 20 18:56 SSE 7 10 Clear   78 68     71%   79 30.1 30.08      
Sep 20 17:56 S 9 10 Clear CLR 84 70     63%   88 30.1 30.06      
Sep 20 16:56 S 10 10 Clear   86 68     55%   89 30.09 30.06      
Sep 20 15:56 SSE 9 10 Mostly Clear FEW095 87 69     55%   91 30.1 30.07      
Sep 20 14:56 S 11 10 Mostly Clear FEW080 87 68     53%   91 30.11 30.08      
Sep 20 13:56 ESE 8 10 Clear CLR 86 68     55%   89 30.13 30.1      
Sep 20 12:56 SSE 5 10 Mostly Clear FEW120 83 68     61%   86 30.15 30.12      
Sep 20 11:56 SE 11 10 Clear CLR 82 69     65%   85 30.15 30.12      
Sep 20 10:56 SE 7 10 Clear CLR 82 68     63%   85 30.15 30.12      
Sep 20 09:56 SSW 8 10 Clear CLR 80 68     67%   83 30.15 30.12      
Sep 20 08:56 Calm 10 Clear CLR 75 67     76%   76 30.15 30.13      
Sep 20 07:56 N 3 10 Partly Cloudy SCT090 70 66     87%     30.16 30.14      
Sep 20 06:56 Calm 10 Cloudy SCT060 BKN080 OVC120 68 65     90%     30.14 30.12      
Sep 20 06:26 ESE 6 10 Cloudy OVC060 70 64     83%     30.14        
Sep 20 05:56 NE 5 10 Cloudy OVC055 69 66     90%     30.14 30.12      
Sep 20 05:37 N 7 10 Cloudy OVC055 72 66     83%   72 30.14        
Sep 20 05:22 N 7 10 Mostly Cloudy BKN060 BKN085 72 64     78%   72 30.14        
Sep 20 05:13 NNW 7 10 Mostly Cloudy BKN060 BKN085 70 64     83%     30.14        
Sep 20 04:53 NNW 7 10 Mostly Cloudy BKN055 BKN090 70 65     84%     30.15 30.11      
Sep 20 04:52 NNW 6 10 Mostly Cloudy BKN055 BKN090 70 64     83%     30.14        
Sep 20 04:37 NW 10 10 Mostly Cloudy BKN050 68 66     94%     30.14        
Sep 20 03:56 NNE 10 10 Cloudy OVC050 70 65     84%     30.12 30.09      
Sep 20 03:44 NNE 7 10 Cloudy OVC050 72 64     78%   72 30.12        
Sep 20 02:56 N 7 10 Partly Cloudy SCT075 SCT090 69 63     81%     30.11 30.08      
Sep 20 01:56 S 5 10 Clear CLR 68 63     84%     30.1 30.07      
Sep 20 00:56 S 8 10 Clear CLR 67 64     90%     30.09 30.06      
Sep 19 23:56 S 6 10 Clear CLR 70 65     84%     30.08 30.06      
Sep 19 22:56 SSE 7 10 Clear CLR 70 65     84%     30.08 30.05      
Sep 19 21:56 SE 7 10 Clear CLR 74 64     71%   74 30.08 30.05      
Sep 19 20:56 SE 6 10 Clear CLR 73 66     79%   74 30.08 30.06      
Sep 19 19:56 6 10 Partly Cloudy SCT090 73 66     79%   74 30.06 30.04      
Sep 19 18:56 5 10 Partly Cloudy SCT100 78 67     69%   79 30.05 30.02      
Sep 19 17:56 5 10 Partly Cloudy SCT100 81 67     62%   83 30.05 30.03      
Sep 19 16:56 5 10 Clear CLR 85 64     50%   86 30.06 30.04      
Sep 19 15:56 3 10 Partly Cloudy SCT065 85 64     50%   86 30.07 30.04      
Sep 19 14:56 3 10 Partly Cloudy SCT060 85 64     50%   86 30.07 30.04      
Sep 19 13:56 3 10 Mostly Cloudy BKN055 83 62     49%   84 30.08 30.06      
Sep 19 12:56 SSW 6 10 Mostly Cloudy BKN055 81 64     56%   83 30.1 30.07      
Sep 19 11:56 S 6 10 Clear CLR 81 65     58%   83 30.11 30.08      
Sep 19 10:56 S 6 10 Mostly Clear FEW055 79 64     60%   79 30.12 30.1      
Sep 19 08:56 SSE 7 10 Clear CLR 70 62     76%     30.12 30.1      
Sep 19 07:56 SSE 3 10 Clear CLR 65 60     84%     30.1 30.08      
Sep 19 06:56 ESE 6 10 Clear CLR 60 58     93%     30.09 30.06      
Sep 19 05:56 SE 3 10 Clear CLR 61 59     93%     30.07 30.05      
Sep 19 04:56 SE 5 10 Clear CLR 62 59     90%     30.06 30.04      
Sep 19 03:56 SE 3 10 Clear CLR 64 59     84%     30.08 30.05      
Sep 19 02:56 ESE 5 10 Clear CLR 65 60     84%     30.09 30.06      
Sep 19 01:56 SE 9 10 Clear CLR 65 60     84%     30.09 30.06      
Sep 19 00:56 SE 9 10 Clear CLR 67 61     81%     30.09 30.07      
Sep 18 23:56 SE 6 10 Clear CLR 67 61     81%     30.1 30.08      
Sep 18 22:56 SE 9 10 Clear CLR 68 62     81%     30.09 30.07      
Sep 18 22:03 SE 7 10 Clear CLR 70 63     78%     30.08        
Sep 18 21:56 ESE 7 10 Clear CLR 68 62     81%     30.08 30.06      
Sep 18 20:56 SSE 9 10 Clear CLR 71 62     73%   71 30.07 30.05      
Sep 18 19:56 SE 10 10 Clear CLR 73 63     71%   73 30.08 30.06      
Sep 18 18:56 SE 5 10 Clear CLR 76 65     69%   76 30.07 30.04      
Sep 18 16:56 SSE 8 10 Clear CLR 83 64     53%   84 30.07 30.05      
May 15 07:32 W 9 10 Mostly Cloudy BKN022 66 63     88%     29.92        
May 15 02:56 WSW 10 10 Mostly Cloudy BKN060 67 62     84%     29.89 29.91      
May 14 09:56 E 9 10 Cloudy OVC049 76 62     62%   76 30 30.03      
May 13 20:56 Calm 10 Clear CLR 71 64     79%   72 29.96 30.01      
May 13 03:38 NE 13 2.5 Fog/Mist OVC004 52 50     94%     29.98        
May 13 02:03 N 16 4 Fog/Mist SCT004 OVC065 54 52     94%     29.99        
May 12 23:56   10 Mostly Clear FEW070 59 53     81%     29.96 30.02      
May 12 20:56 NE 18 9 Cloudy BKN050 OVC070 57 52     83%     30.03 30.1      
Jun 11 13:56   10 Clear CLR 89 62     41%   90   29.98      
Jun 10 23:56 SSW 18 10 Clear CLR 74 55     52%   73   29.95      
Jun 10 12:56   10 Clear CLR 84 54     36%   83   29.93      
Jun 09 14:56 WSW 15 10 Mostly Clear FEW110 86 55     35%   84   29.88      
Jun 08 23:56 WSW 6 10 Clear   68 47     47%       29.92      
Jun 07 13:56   10 Clear CLR 78 43     29%   77 30.08 30.13      
Jun 07 12:56 ENE 18 10 Clear CLR 76 44     32%   75 30.1        
Jun 07 07:56   10 Clear CLR 62 50     65%     30.12 30.16      
Jun 06 13:56   10 Clear CLR 77 44     31%   76 30 30.05      
Jun 06 06:56 NNE 14 10 Clear CLR 56 46     69%     30.02 30.06      
Jun 06 00:56 NE 13 10 Clear CLR 59 50     72%     29.97 30      
Jun 05 16:56   10 Clear CLR 83 57     41%   82 29.79